Weather History for KSUT - April, 2014

Change the Weather History Date:

Monday, April 14, 2014

  Actual Average (KILM) Record (KILM)
Temperature  
Mean Temperature 69 °F 63 °F  
Max Temperature 76 °F 74 °F 91 °F (1922)
Min Temperature 62 °F 51 °F 34 °F (1973)
Degree Days  
Heating Degree Days 0 5  
Month to date heating degree days 81  
Since 1 July heating degree days 2333  
Cooling Degree Days 4 2  
Month to date cooling degree days 22  
Year to date cooling degree days 43  
Growing Degree Days 19 (Base 50)    
Moisture  
Dew Point 62 °F    
Average Humidity 82    
Maximum Humidity 96    
Minimum Humidity 64    
Precipitation  
Precipitation 0.02 in 0.09 in 1.76 in (1914)
Month to date precipitation 1.35  
Year to date precipitation 12.94  
Snow  
Snow 0.00 in 0.00 in - ()
Month to date snowfall 0.0  
Since 1 July snowfall 1.7  
Snow Depth -    
Sea Level Pressure  
Sea Level Pressure 30.05 in    
Wind  
Wind Speed 5 mph (SSE)    
Max Wind Speed 10 mph    
Max Gust Speed 17 mph    
Visibility 10 miles    
Events Rain    
T = Trace of Precipitation, MM = Missing Value Source: NWS Daily Summary

Daily Weather History Graph

Daily Weather History Graph

Search for Another Location

Airport or City:

Trip Planner

Search our weather history database for the weather conditions in past years. The results will help you decide how hot, cold, wet, or windy it might be!

Date:

Astronomy

Apr. 14, 2014 Rise Set
Actual Time 6:42 AM EDT 7:42 PM EDT
Civil Twilight 6:17 AM EDT 8:08 PM EDT
Nautical Twilight 5:46 AM EDT 8:39 PM EDT
Astronomical Twilight 5:15 AM EDT 9:10 PM EDT
Moon 7:20 PM EDT (4/14) 6:11 AM EDT (4/14)
Length of Visible Light 13h 51m
Length of Day
13h 00m
Full, 100% of the Moon is Illuminated
Apr 14
Full
Apr 15
Full
Apr 22
Last Quarter
Apr 29
New
May 6
First Quarter

Hourly Weather History & Observations

Time (EDT) Temp. Dew Point Humidity Pressure Visibility Wind Dir Wind Speed Gust Speed Precip Events Conditions
12:15 AM 65.3 °F 60.8 °F 85% 30.16 in 10.0 mi SE 3.5 mph - N/A   Clear
12:35 AM 65.1 °F 60.8 °F 86% 30.15 in 10.0 mi SE 3.5 mph - N/A   Clear
12:55 AM 64.6 °F 60.1 °F 85% 30.15 in 10.0 mi SE 4.6 mph - N/A   Clear
1:15 AM 64.4 °F 59.5 °F 84% 30.15 in 10.0 mi SE 3.5 mph - N/A   Clear
1:35 AM 64.0 °F 59.0 °F 84% 30.15 in 10.0 mi SE 4.6 mph - N/A   Clear
1:55 AM 63.5 °F 59.2 °F 86% 30.14 in 10.0 mi Calm Calm - N/A   Clear
2:15 AM 63.5 °F 59.2 °F 86% 30.13 in 10.0 mi SE 3.5 mph - N/A   Clear
2:35 AM 63.3 °F 59.0 °F 86% 30.13 in 10.0 mi Calm Calm - N/A   Clear
2:55 AM 63.0 °F 58.6 °F 86% 30.12 in 10.0 mi Calm Calm - N/A   Clear
3:15 AM 62.8 °F 58.5 °F 86% 30.12 in 10.0 mi SE 3.5 mph - N/A   Clear
3:35 AM 63.3 °F 58.5 °F 84% 30.11 in 10.0 mi SE 3.5 mph - N/A   Clear
3:55 AM 63.5 °F 58.5 °F 84% 30.11 in 10.0 mi ESE 3.5 mph - N/A   Clear
4:15 AM 63.5 °F 57.7 °F 81% 30.10 in 10.0 mi SE 4.6 mph - N/A   Clear
4:35 AM 63.5 °F 57.6 °F 81% 30.09 in 10.0 mi SE 4.6 mph - N/A   Clear
4:55 AM 63.9 °F 57.7 °F 80% 30.09 in 10.0 mi SE 4.6 mph - N/A   Clear
5:15 AM 64.0 °F 57.7 °F 80% 30.08 in 10.0 mi SE 4.6 mph - N/A   Clear
5:35 AM 63.7 °F 57.9 °F 81% 30.08 in 10.0 mi SE 4.6 mph - N/A   Clear
5:55 AM 63.9 °F 57.9 °F 81% 30.08 in 10.0 mi SE 3.5 mph - N/A   Clear
6:15 AM 63.9 °F 58.1 °F 81% 30.08 in 10.0 mi SE 4.6 mph - N/A   Clear
6:35 AM 63.5 °F 58.3 °F 83% 30.08 in 10.0 mi Calm Calm - N/A   Clear
6:55 AM 63.1 °F 59.0 °F 86% 30.08 in 10.0 mi Calm Calm - N/A   Clear
7:15 AM 64.4 °F 59.9 °F 85% 30.08 in 10.0 mi SE 3.5 mph - N/A   Clear
7:35 AM 66.4 °F 60.6 °F 82% 30.09 in 10.0 mi SE 3.5 mph - N/A   Clear
7:55 AM 67.8 °F 61.0 °F 79% 30.08 in 10.0 mi SE 4.6 mph - N/A   Scattered Clouds
8:15 AM 68.4 °F 61.9 °F 80% 30.09 in 10.0 mi SSE 5.8 mph - N/A   Clear
8:35 AM 69.8 °F 62.1 °F 76% 30.10 in 10.0 mi SSE 5.8 mph - N/A   Scattered Clouds
8:55 AM 69.3 °F 61.9 °F 77% 30.10 in 10.0 mi SSE 4.6 mph - N/A   Mostly Cloudy
9:15 AM 70.3 °F 61.9 °F 74% 30.09 in 10.0 mi SE 6.9 mph - N/A   Scattered Clouds
9:35 AM 70.3 °F 62.1 °F 75% 30.10 in 10.0 mi SSE 6.9 mph - N/A   Scattered Clouds
9:55 AM 71.2 °F 62.6 °F 74% 30.09 in 10.0 mi SSE 8.1 mph - N/A   Mostly Cloudy
10:15 AM 71.1 °F 62.6 °F 75% 30.09 in 10.0 mi SSE 6.9 mph - N/A   Mostly Cloudy
10:35 AM 72.7 °F 62.6 °F 71% 30.10 in 10.0 mi SSE 10.4 mph 17.3 mph N/A   Scattered Clouds
10:55 AM 72.9 °F 62.1 °F 69% 30.10 in 10.0 mi SSE 10.4 mph 16.1 mph N/A   Mostly Cloudy
11:15 AM 72.5 °F 62.1 °F 70% 30.11 in 10.0 mi SSE 10.4 mph - N/A   Mostly Cloudy
11:35 AM 74.3 °F 62.4 °F 66% 30.10 in 10.0 mi SSE 8.1 mph - N/A   Overcast
11:55 AM 73.0 °F 61.9 °F 68% 30.10 in 10.0 mi SSE 9.2 mph - N/A   Overcast
12:15 PM 74.5 °F 62.8 °F 67% 30.09 in 10.0 mi SSE 9.2 mph - N/A   Scattered Clouds
12:35 PM 74.8 °F 62.8 °F 66% 30.08 in 10.0 mi SSE 9.2 mph - N/A   Scattered Clouds
12:55 PM 76.1 °F 63.1 °F 64% 30.08 in 10.0 mi SSE 9.2 mph - N/A   Mostly Cloudy
1:15 PM 76.1 °F 63.5 °F 65% 30.07 in 10.0 mi SSE 6.9 mph - N/A   Scattered Clouds
1:35 PM 74.7 °F 63.3 °F 68% 30.06 in 10.0 mi SSE 8.1 mph - N/A   Clear
1:55 PM 75.4 °F 63.7 °F 67% 30.06 in 10.0 mi South 10.4 mph - N/A   Scattered Clouds
2:15 PM 74.3 °F 63.5 °F 69% 30.06 in 10.0 mi South 8.1 mph - N/A   Mostly Cloudy
2:35 PM 72.9 °F 63.7 °F 73% 30.04 in 10.0 mi SSE 5.8 mph - N/A   Overcast
2:55 PM 74.3 °F 64.6 °F 72% 30.04 in 10.0 mi South 5.8 mph - N/A   Overcast
3:15 PM 73.4 °F 64.6 °F 74% 30.03 in 10.0 mi SSE 6.9 mph - N/A   Overcast
3:35 PM 72.5 °F 64.4 °F 76% 30.02 in 10.0 mi South 8.1 mph - N/A   Overcast
3:55 PM 72.0 °F 65.1 °F 79% 30.01 in 10.0 mi South 8.1 mph - N/A   Overcast
4:15 PM 71.1 °F 64.8 °F 80% 30.00 in 10.0 mi SSE 8.1 mph - N/A   Overcast
4:35 PM 70.7 °F 64.9 °F 82% 29.99 in 10.0 mi South 6.9 mph - N/A   Overcast
4:55 PM 70.7 °F 65.3 °F 83% 29.99 in 10.0 mi South 6.9 mph - N/A   Overcast
5:15 PM 70.7 °F 65.3 °F 83% 29.98 in 10.0 mi SSE 6.9 mph - N/A   Overcast
5:35 PM 71.1 °F 65.7 °F 83% 29.98 in 10.0 mi South 5.8 mph - N/A   Overcast
5:55 PM 70.5 °F 65.5 °F 84% 29.97 in 10.0 mi South 8.1 mph - N/A   Overcast
6:15 PM 70.7 °F 65.7 °F 84% 29.98 in 10.0 mi South 6.9 mph - N/A   Overcast
6:35 PM 70.2 °F 65.7 °F 86% 29.97 in 7.0 mi South 6.9 mph - N/A   Overcast
6:55 PM 67.1 °F 64.0 °F 90% 29.98 in 10.0 mi WSW 8.1 mph - N/A Rain Rain
7:15 PM 65.7 °F 64.0 °F 94% 29.97 in 10.0 mi SW 3.5 mph - N/A   Light Drizzle
7:35 PM 65.8 °F 64.0 °F 94% 29.97 in 10.0 mi SW 4.6 mph - N/A   Overcast
7:55 PM 65.8 °F 63.9 °F 93% 29.96 in 10.0 mi Calm Calm - N/A   Mostly Cloudy
8:15 PM 66.0 °F 63.9 °F 93% 29.96 in 7.0 mi SSW 4.6 mph - N/A Rain Rain
8:35 PM 65.5 °F 64.0 °F 95% 29.96 in 10.0 mi Calm Calm - 0.01 in   Overcast
8:55 PM 65.7 °F 64.4 °F 96% 29.96 in 10.0 mi Calm Calm - 0.02 in   Overcast
9:15 PM 65.7 °F 64.6 °F 96% 29.96 in 10.0 mi Calm Calm - N/A   Overcast
9:35 PM 65.8 °F 64.8 °F 96% 29.96 in 10.0 mi Calm Calm - N/A   Overcast
9:55 PM 66.0 °F 64.8 °F 96% 29.95 in 10.0 mi Calm Calm - N/A   Overcast
10:15 PM 66.4 °F 65.3 °F 96% 29.95 in 7.0 mi SE 3.5 mph - N/A   Overcast
10:35 PM 67.1 °F 66.0 °F 96% 29.94 in 7.0 mi SSE 3.5 mph - N/A   Overcast
10:55 PM 67.5 °F 66.0 °F 95% 29.93 in 7.0 mi SSE 5.8 mph - N/A   Mostly Cloudy
11:15 PM 67.5 °F 66.2 °F 96% 29.92 in 7.0 mi SSE 5.8 mph - N/A   Scattered Clouds
11:35 PM 67.1 °F 65.7 °F 95% 29.92 in 5.0 mi SSE 4.6 mph - N/A   Scattered Clouds
11:55 PM 67.3 °F 65.7 °F 95% 29.92 in 5.0 mi SSE 5.8 mph - N/A   Mostly Cloudy